Helicity
44 63 71 64 61 57 110 94 49 76 186 120 112 144 198 221 183 177 205 231 195 224 229 198 216 152 193 218 204 160 137 145 172 132 134 95 95 108 79 79 66 54 49
51 56 68 51 33 30 108 44 45 65 175 103 116 152 200 180 139 182 230 221 186 190 171 207 172 144 222 197 197 136 142 167 173 133 126 114 100 110 97 66 59 46 45
59 68 66 39 36 83 47 37 43 76 132 115 167 217 172 189 191 215 257 257 183 203 179 178 196 212 254 228 225 185 179 174 168 134 121 100 111 79 44 44 34 31 27
64 41 27 45 39 49 109 98 123 91 183 189 213 200 189 208 266 251 238 263 268 243 247 264 188 185 177 196 203 132 123 184 181 157 110 89 70 56 40 39 46 35 46
46 -0 45 54 64 79 121 190 228 247 265 228 210 256 239 239 239 244 250 232 269 300 309 339 308 291 202 170 144 140 122 142 140 121 109 77 59 38 44 28 39 41 32
20 25 52 58 52 80 106 153 198 154 209 215 177 234 234 236 245 254 189 194 253 236 291 289 332 257 222 186 197 223 158 113 112 104 92 67 52 49 33 26 25 39 40
32 27 60 44 62 54 49 86 92 108 137 151 238 296 276 238 182 182 207 221 211 207 267 322 277 136 156 163 165 175 188 175 122 91 83 77 65 22 10 22 48 38 35
36 7 41 51 67 72 85 92 129 122 161 214 205 155 215 159 155 175 209 236 249 197 164 111 125 136 122 109 115 115 128 127 107 87 68 32 29 26 30 42 43 25 31
59 18 16 37 72 84 99 97 125 187 178 194 189 214 229 278 260 221 279 292 223 177 126 124 111 98 79 85 88 82 86 77 70 52 35 34 39 39 39 28 30 49 52
56 37 25 61 76 113 125 154 156 227 260 220 211 197 191 197 191 224 228 193 202 149 131 110 78 59 58 42 41 54 58 10 -14 -7 8 19 28 30 27 24 34 37 50
57 97 94 76 92 102 119 147 188 196 204 217 247 237 201 191 186 124 101 109 117 123 121 93 65 49 53 61 78 14 21 -1 16 22 28 23 17 13 16 25 45 68 69
53 72 89 104 97 107 173 159 165 176 187 224 241 251 237 194 112 86 86 78 52 95 79 79 46 59 59 52 26 29 46 53 37 25 9 13 28 21 38 62 74 79 88
29 62 99 129 133 120 141 161 168 160 151 146 177 218 256 246 158 127 114 110 87 125 119 75 74 54 38 46 54 54 44 22 18 14 21 29 43 57 68 61 73 83 90
4 12 55 96 96 89 57 57 87 99 119 137 180 234 263 254 150 124 160 168 133 117 95 84 38 41 56 59 56 47 28 19 18 25 39 55 69 68 66 77 95 107 111
35 32 28 42 70 92 97 87 130 153 89 66 58 65 47 31 47 22 50 49 51 51 54 49 47 52 60 62 56 44 30 25 28 40 58 66 65 66 73 106 124 129 125
53 57 54 80 63 72 92 110 95 88 93 82 68 42 39 21 31 4 13 21 30 47 39 42 47 55 60 57 57 58 54 49 43 44 53 72 79 86 96 116 117 116 121
49 53 70 75 85 72 43 55 69 91 71 45 18 32 20 19 22 29 39 41 48 44 45 60 68 70 73 80 88 87 76 68 70 61 79 96 109 98 80 102 112 125 136
-0 8 22 14 13 17 19 16 7 18 23 -0 29 -29 -31 14 28 32 43 62 66 48 64 75 80 89 97 100 97 96 97 115 118 107 116 125 122 120 134 126 121 121 123
3 -8 -11 -12 -14 -13 -5 -7 -9 -15 -14 -7 -8 -4 35 64 71 71 68 64 70 69 76 84 102 111 111 113 130 151 162 167 154 151 147 154 148 160 146 110 103 65 71
-19 -6 -8 -10 -16 -24 -21 -11 -3 6 18 23 31 37 55 73 76 71 64 66 79 90 105 114 117 128 142 151 184 190 185 176 163 157 161 152 149 164 157 119 112 118 118
-39 -11 6 7 6 5 15 24 28 34 40 41 45 62 78 93 99 103 106 98 96 94 110 130 135 137 147 176 193 199 182 160 163 174 191 181 154 150 136 129 134 124 120
-7 12 32 41 46 44 43 47 54 57 57 59 61 65 68 82 92 90 88 83 75 87 118 142 169 185 182 192 190 173 175 173 177 190 183 150 144 149 139 138 136 129 124
18 12 35 45 54 56 64 67 72 77 83 89 99 115 120 118 105 101 109 125 143 157 171 194 183 176 196 185 176 166 173 162 166 173 166 150 172 155 138 134 132 139 128
51 73 51 45 58 66 77 87 94 105 109 110 110 100 98 110 113 115 120 126 135 148 167 178 176 144 141 143 156 164 150 156 161 160 145 158 165 133 134 135 133 130 137
96 95 65 91 94 95 97 101 102 101 93 87 95 102 105 111 112 114 119 124 117 121 122 125 138 148 158 165 136 130 143 133 146 139 161 148 136 116 118 119 114 119 125
81 80 86 94 94 91 93 94 93 99 107 112 118 124 132 136 134 134 134 140 143 143 144 144 155 163 159 143 135 142 136 132 130 106 134 134 114 106 121 131 125 147 136
Wind_Speed
68 69 63 67 63 55 43 37 28 36 36 42 48 49 43 37 29 30 30 30 34 36 37 35 35 37 35 36 38 41 45 42 46 40 33 28 27 29 31 35 40 46 49
59 65 57 69 61 50 32 27 18 29 27 37 48 48 45 38 33 30 26 24 27 27 30 31 31 33 36 36 36 39 39 38 38 37 31 33 32 31 34 39 42 48 50
58 54 45 54 57 51 20 13 11 13 18 24 44 47 45 37 30 26 23 21 23 29 22 24 33 31 32 35 34 33 32 29 28 27 31 27 31 32 37 37 43 47 50
49 45 32 43 46 43 34 19 15 7 11 21 37 40 42 32 28 22 19 16 15 20 22 21 23 27 27 27 25 24 23 20 17 18 19 23 28 31 39 42 45 48 55
35 28 30 39 41 36 31 23 16 6 12 22 26 30 28 28 26 20 18 14 13 13 16 18 20 20 19 19 17 16 16 13 13 15 19 24 28 32 42 46 49 53 57
33 28 31 36 38 28 32 30 9 15 5 9 17 20 24 31 16 12 13 11 13 12 13 12 12 11 13 11 12 14 18 17 12 18 21 26 32 36 42 47 50 56 58
34 32 33 34 27 27 32 24 20 19 5 9 12 16 22 18 12 12 10 8 9 7 3 4 3 5 7 9 13 14 13 14 17 18 20 28 34 38 43 49 51 55 59
35 35 35 33 27 25 23 17 18 9 3 5 9 9 9 7 10 10 7 3 0 2 3 2 4 3 7 8 9 12 15 18 22 24 25 29 33 37 41 46 51 56 62
34 35 35 29 25 22 18 16 12 17 13 10 7 6 5 5 8 7 5 4 5 4 6 8 6 7 9 9 8 11 14 18 22 25 29 32 36 40 43 47 55 61 64
32 32 31 30 26 20 17 16 15 16 15 14 12 8 8 6 4 4 4 6 7 5 7 10 11 12 12 12 11 12 17 20 26 30 34 38 41 43 46 49 53 58 63
27 24 25 27 23 18 20 19 18 15 13 9 11 7 4 5 6 9 9 6 8 8 5 9 11 14 15 14 17 18 20 22 28 34 38 41 43 46 49 50 52 55 62
22 21 20 19 19 12 17 15 14 14 10 7 6 3 5 6 6 6 9 7 14 12 13 14 13 13 13 15 18 18 22 28 34 39 42 45 48 52 53 54 54 54 55
29 21 21 21 13 11 15 14 12 11 17 14 7 5 5 6 4 8 11 11 10 11 11 11 11 13 14 17 19 23 28 33 37 41 46 51 52 52 53 55 56 57 58
41 32 20 20 13 12 15 19 15 13 9 10 11 15 9 7 5 4 4 6 10 10 12 12 13 15 17 20 23 25 32 37 42 47 51 51 52 54 57 57 61 63 66
48 49 42 34 17 20 11 16 18 10 8 26 20 8 25 28 17 26 21 20 16 14 14 15 14 16 19 21 26 32 37 40 44 46 51 56 57 57 58 58 60 63 67
45 47 48 47 38 28 20 9 6 10 11 6 9 26 35 43 38 36 31 27 25 22 14 14 14 16 21 28 34 37 38 41 44 48 52 55 56 57 59 60 63 66 69
42 45 48 50 53 56 35 23 29 8 7 18 27 27 28 35 34 32 27 24 23 16 14 14 21 25 29 31 33 36 40 43 44 47 50 52 55 59 62 65 66 68 70
42 44 42 41 41 40 33 29 32 34 39 38 13 27 31 30 26 23 21 16 12 11 23 23 23 24 27 30 33 37 40 42 45 48 50 51 54 59 66 68 69 71 73
37 38 39 39 43 44 41 39 39 38 36 33 30 26 26 22 17 13 11 12 11 12 16 21 24 27 29 32 35 38 42 45 47 49 51 54 56 60 65 68 71 74 76
37 38 37 37 38 36 36 34 31 29 26 24 21 19 18 15 12 10 7 8 14 17 21 23 27 30 32 35 39 41 44 47 50 53 55 57 60 63 68 72 73 77 77
27 32 33 30 24 24 24 22 21 20 19 18 17 15 13 11 10 11 13 14 18 23 26 27 28 29 34 41 43 46 49 53 55 58 57 60 65 70 69 71 73 74 73
21 21 19 16 17 15 15 16 16 16 16 16 16 15 11 12 17 17 17 15 12 17 23 28 35 41 45 46 46 49 53 57 62 60 63 65 66 66 69 71 72 71 69
11 12 13 15 16 15 14 14 15 15 16 17 18 18 14 10 8 8 13 21 26 31 35 39 45 48 47 47 50 52 59 64 64 62 64 66 65 68 71 72 71 68 67
8 11 14 17 16 16 16 16 18 19 21 21 19 14 11 12 17 23 29 34 37 40 43 46 47 48 52 54 55 58 58 60 60 60 61 63 66 68 68 66 63 62 64
10 13 14 18 18 19 20 21 22 23 20 17 20 24 27 28 30 35 40 46 46 45 47 49 51 52 55 58 59 61 59 60 61 61 60 61 62 62 60 61 65 63 60
15 16 18 20 21 22 23 24 24 25 27 30 31 34 37 40 45 49 50 53 55 55 54 54 55 57 58 59 59 59 59 59 60 61 59 58 58 57 57 56 56 55 55
Wind_Direction
320 321 324 319 320 317 312 303 289 269 247 248 237 236 234 235 242 242 238 241 244 248 255 254 259 268 270 278 281 279 279 278 273 289 290 290 290 297 307 308 310 310 309
330 325 327 315 324 323 315 304 277 274 238 245 231 231 230 236 241 242 238 242 244 244 250 254 261 265 276 282 283 282 281 282 278 277 285 288 292 302 307 308 309 309 311
334 332 336 326 336 328 340 339 314 227 234 237 223 222 228 234 237 245 241 243 247 253 254 258 262 272 280 284 286 283 283 284 285 282 288 294 297 304 305 313 311 313 315
343 338 351 345 352 341 337 9 334 200 241 233 218 222 227 229 232 237 236 242 255 253 258 272 279 283 282 285 282 286 283 285 291 292 298 299 302 310 308 312 315 317 317
359 5 1 1 357 359 346 353 304 331 257 228 219 212 215 225 229 234 238 236 245 246 271 281 292 296 294 293 293 288 282 291 292 293 297 300 309 314 309 312 318 319 318
16 23 10 20 12 353 21 13 310 36 7 201 194 198 210 227 212 211 218 227 243 259 272 293 298 296 297 336 344 313 296 282 298 293 302 304 310 315 316 317 320 321 321
25 13 20 34 346 358 23 17 31 52 216 134 191 206 221 215 201 193 197 246 259 283 305 268 309 308 12 358 13 15 1 330 324 312 315 314 315 318 319 320 322 322 322
23 28 33 32 3 11 2 3 32 30 42 85 186 191 198 171 161 175 188 217 333 335 34 348 47 354 358 18 9 10 360 345 331 333 335 329 330 332 329 327 326 326 324
358 22 39 20 13 15 4 17 23 47 54 66 86 159 163 192 165 153 129 102 88 73 47 48 37 36 37 19 358 10 349 345 346 349 344 340 334 332 332 330 327 327 327
310 5 23 28 28 13 15 28 42 49 55 64 74 83 106 115 128 121 96 95 97 86 55 55 55 54 49 38 26 358 333 331 329 328 333 332 334 334 333 333 332 329 329
310 335 15 26 24 21 43 41 58 64 71 72 71 67 82 81 68 77 83 86 97 92 76 64 50 51 40 20 343 339 338 340 335 332 332 332 334 335 335 335 336 335 330
320 344 3 5 23 10 44 34 54 68 70 56 58 41 20 35 47 51 64 72 83 87 83 66 50 19 9 352 345 356 350 341 335 333 331 331 331 330 334 338 339 338 336
16 5 27 35 13 14 37 38 46 47 64 63 56 61 33 12 2 46 60 57 50 62 48 38 28 28 17 359 1 352 346 341 339 335 333 329 332 337 339 339 340 339 337
55 46 31 39 24 16 37 53 47 49 48 52 60 71 54 47 38 307 326 2 40 40 50 35 32 27 12 1 354 351 343 338 334 331 332 338 340 339 337 339 337 337 336
89 87 74 67 45 51 19 34 43 18 33 80 73 69 88 106 160 92 85 87 79 72 62 47 32 10 2 357 347 338 336 339 338 340 339 337 336 336 337 339 338 338 336
92 96 97 91 86 61 50 29 281 248 255 334 18 73 165 116 112 112 104 98 97 93 55 55 37 9 345 332 331 336 341 342 341 339 337 336 337 338 337 337 337 335 333
98 100 104 107 114 138 188 58 66 253 326 31 63 71 76 103 109 109 102 99 103 80 26 8 339 333 333 338 340 340 338 338 340 338 338 337 337 336 336 335 334 334 333
98 98 95 94 94 92 76 68 73 84 102 103 0 75 93 99 96 93 88 72 68 5 333 337 340 341 340 338 336 334 334 336 336 336 336 335 335 334 333 332 332 332 331
100 98 97 94 101 102 98 98 100 99 98 96 91 79 93 88 75 60 53 16 11 356 345 340 339 337 335 333 333 332 332 332 333 333 332 331 331 331 330 330 330 330 329
106 103 100 100 102 98 99 97 94 93 90 87 85 78 74 66 65 51 47 9 348 341 337 332 331 331 330 329 329 330 330 330 329 328 327 327 327 327 327 328 328 328 329
95 105 104 100 87 89 95 92 83 72 67 65 60 61 70 45 27 7 352 341 335 332 330 329 329 328 327 327 326 325 324 324 325 325 324 325 325 325 326 327 328 328 329
93 93 82 63 68 76 75 68 63 60 57 49 35 34 50 19 358 349 342 336 328 326 326 324 324 324 323 323 323 322 322 322 323 323 322 323 325 326 327 327 328 328 329
79 63 51 23 19 31 38 38 37 34 28 23 20 17 20 18 12 354 341 335 330 326 325 323 322 322 322 321 321 321 321 321 322 323 323 324 325 327 327 327 327 328 329
16 6 5 9 26 27 23 21 17 16 14 16 24 37 34 12 354 345 339 335 332 329 326 324 323 323 323 323 323 323 323 324 325 325 326 325 325 326 327 328 329 329 330
344 1 13 16 19 15 14 16 15 18 36 46 28 12 2 356 350 345 340 335 334 333 332 330 328 327 325 324 324 325 325 325 326 327 327 326 326 328 329 331 330 331 331
29 21 15 16 18 19 19 25 35 30 18 10 7 2 357 351 345 342 341 339 336 335 334 333 331 330 328 328 328 329 329 328 329 329 329 330 330 332 333 333 333 332 333